Location: Makakahi
(40.6833°S, 175.6000°E)
Time: 11:55:09
(UTC+00:00)

FENGYUN 1C DEB - Visible Passes

Search period start: 07 February 2026 00:00
Search period end: 17 February 2026 00:00
Orbit: 840 x 905 km, 98.9° (Epoch: 6 February)

Date Brightness Start Highest point End Pass type
(mag) Time Alt. Az. Time Alt. Az. Time Alt. Az.
7 Feb ? 07:54:50 10° SE 07:58:36 18° E 08:02:21 10° NE visible
7 Feb ? 09:34:38 10° S 09:40:05 59° WSW 09:45:32 10° NNW visible
8 Feb ? 09:29:05 10° S 09:34:35 65° WSW 09:40:06 10° NNW visible
9 Feb ? 09:23:32 10° S 09:29:05 73° WSW 09:34:39 10° NNW visible
9 Feb ? 11:08:18 10° SW 11:09:14 10° SW 11:10:11 10° WSW visible
10 Feb ? 09:18:00 10° SSE 09:23:35 81° WSW 09:29:10 10° NNW visible
10 Feb ? 11:01:55 10° SW 11:03:49 12° WSW 11:05:43 10° WSW visible
11 Feb ? 09:12:28 10° SSE 09:18:04 90° WSW 09:23:41 10° NNW visible
11 Feb ? 10:55:54 10° SSW 10:58:23 13° WSW 11:00:53 10° W visible
12 Feb ? 09:06:57 10° SSE 09:12:32 82° ENE 09:18:10 10° NNW visible
12 Feb ? 10:50:00 10° SSW 10:52:57 15° WSW 10:55:54 10° W visible
13 Feb ? 09:01:26 10° SSE 09:07:01 74° ENE 09:12:38 10° N visible
13 Feb ? 10:44:11 10° SSW 10:47:31 16° WSW 10:50:51 10° W visible
14 Feb ? 08:55:55 10° SSE 09:01:30 66° ENE 09:07:04 10° N visible
14 Feb ? 10:38:24 10° SSW 10:42:04 18° WSW 10:45:44 10° WNW visible
15 Feb ? 08:50:26 10° SSE 08:55:58 59° ENE 09:01:31 10° N visible
15 Feb ? 10:32:40 10° SSW 10:36:36 20° WSW 10:40:35 10° WNW visible
16 Feb ? 08:44:57 10° SSE 08:50:25 53° E 08:55:49 11° N visible
16 Feb ? 10:26:57 10° SSW 10:31:09 22° WSW 10:35:22 10° WNW visible
